This is the latest recevied weather packets stored in our database for station/object KF4CQ. If no packets are shown the sender has not sent any weather packets the latest 10 day(s).
| Time | Temp. | Humidity | Pressure | Rain* | Wind** | Luminosity | Snow |
|---|---|---|---|---|---|---|---|
| 1778115172 | 27.22° C | 77% | 1016.6 hPa | 0 mm | - | 0 W/m² | - |
| 1778114869 | 27.22° C | 77% | 1016.5 hPa | 0 mm | - | 0 W/m² | - |
| 1778114567 | 27.78° C | 76% | 1016.5 hPa | 0 mm | - | 0 W/m² | - |
| 1778114263 | 27.78° C | 76% | 1016.5 hPa | 0 mm | - | 0 W/m² | - |
| 1778113958 | 27.78° C | 75% | 1016.3 hPa | 0 mm | - | 0 W/m² | - |
| 1778113654 | 27.78° C | 75% | 1016.3 hPa | 0 mm | - | 0 W/m² | - |
| 1778113351 | 27.78° C | 75% | 1016.3 hPa | 0 mm | - | 0 W/m² | - |
| 1778113048 | 28.33° C | 74% | 1016.1 hPa | 0 mm | - | 0 W/m² | - |
| 1778112745 | 28.33° C | 74% | 1016.2 hPa | 0 mm | - | 1 W/m² | - |
| 1778112441 | 28.33° C | 73% | 1016.2 hPa | 0 mm | - | 2 W/m² | - |
| 1778112137 | 28.33° C | 73% | 1016 hPa | 0 mm | - | 3 W/m² | - |
| 1778111834 | 28.89° C | 72% | 1016.2 hPa | 0 mm | - | 5 W/m² | - |
| 1778111529 | 28.89° C | 72% | 1015.9 hPa | 0 mm | - | 7 W/m² | - |
| 1778111226 | 28.89° C | 71% | 1015.9 hPa | 0 mm | - | 9 W/m² | - |
| 1778110924 | 29.44° C | 71% | 1016 hPa | 0 mm | - | 12 W/m² | - |
| 1778110621 | 29.44° C | 70% | 1015.9 hPa | 0 mm | - | 14 W/m² | - |
| 1778110318 | 29.44° C | 69% | 1016 hPa | 0 mm | - | 16 W/m² | - |
| 1778110014 | 30° C | 69% | 1015.9 hPa | 0 mm | - | 17 W/m² | - |
| 1778109709 | 30° C | 68% | 1015.9 hPa | 0 mm | - | 19 W/m² | - |
| 1778109406 | 30° C | 68% | 1016.1 hPa | 0 mm | - | 21 W/m² | - |
| 1778109105 | 30.56° C | 67% | 1015.9 hPa | 0 mm | - | 23 W/m² | - |
| 1778108801 | 30.56° C | 67% | 1015.8 hPa | 0 mm | - | 28 W/m² | - |
| 1778108498 | 31.11° C | 65% | 1015.9 hPa | 0 mm | - | 32 W/m² | - |
| 1778108195 | 31.11° C | 65% | 1015.7 hPa | 0 mm | - | 32 W/m² | - |
| 1778107892 | 31.67° C | 64% | 1015.8 hPa | 0 mm | - | 36 W/m² | - |
* Rain latest hour (hover to see other rain measurements)
** Current wind speed in m/s (hover to see current wind gust speed)